{"data":{"norad_id":52879,"epoch":"2026-09-20T03:12:23.611968Z","epoch_age_seconds":100456,"freshness":"FRESH","line1":"1 52879U 22062BB  26263.13360662  .00000287  00000+0  19651-4 0  9991","line2":"2 52879  53.1592 205.1773 0001716  87.7818 272.3381 15.34389686235646","mean_motion":15.34389686,"eccentricity":0.0001716,"inclination_deg":53.1592,"raan_deg":205.1773,"arg_perigee_deg":87.7818,"mean_anomaly_deg":272.3381,"bstar":1.9651e-5,"rev_number":23564,"period_min":93.848388915722,"perigee_km":461.56000231469,"apogee_km":463.90778920611,"semimajor_km":6840.8708957604,"source":"CELESTRAK","updated_at":"2026-09-20T09:00:40.137907Z"}}